Time,TemperatureF,DewpointF,PressureIn,WindDirection,WindDirectionDegrees,WindSpeedMPH,WindSpeedGustMPH,Humidity,HourlyPrecipIn,Conditions,Clouds,dailyrainin,SoftwareType,DateUTC
2013-08-18 00:01:00,71.6,60.5,29.95,ENE,77,0.0,0.0,68,0.00,,,0.00,WeatherCatV1.21B27,2013-08-18 05:01:00,
2013-08-18 00:06:00,71.5,60.4,29.95,ENE,77,0.0,0.0,68,0.00,,,0.00,WeatherCatV1.21B27,2013-08-18 05:06:00,
2013-08-18 00:11:00,71.1,60.0,29.95,ENE,77,0.0,0.0,68,0.00,,,0.00,WeatherCatV1.21B27,2013-08-18 05:11:00,
2013-08-18 00:16:00,71.0,61.5,29.95,ENE,77,0.0,0.0,72,0.00,,,0.00,WeatherCatV1.21B27,2013-08-18 05:16:00,
2013-08-18 00:21:00,70.9,60.6,29.95,ENE,77,0.0,0.0,70,0.00,,,0.00,WeatherCatV1.21B27,2013-08-18 05:21:00,
2013-08-18 00:26:00,70.7,60.4,29.95,ENE,77,0.0,0.0,70,0.00,,,0.00,WeatherCatV1.21B27,2013-08-18 05:26:00,
2013-08-18 00:31:00,70.5,60.2,29.95,ENE,77,0.0,0.0,70,0.00,,,0.00,WeatherCatV1.21B27,2013-08-18 05:31:00,
2013-08-18 00:36:00,70.6,60.7,29.95,ENE,77,0.0,0.0,71,0.00,,,0.00,WeatherCatV1.21B27,2013-08-18 05:36:00,
2013-08-18 00:41:00,70.6,60.7,29.95,ENE,77,0.0,0.0,71,0.00,,,0.00,WeatherCatV1.21B27,2013-08-18 05:41:00,
2013-08-18 00:46:00,70.2,60.7,29.95,ENE,77,0.0,0.0,72,0.00,,,0.00,WeatherCatV1.21B27,2013-08-18 05:46:00,
2013-08-18 00:51:00,70.3,61.2,29.95,ENE,77,0.0,0.0,73,0.00,,,0.00,WeatherCatV1.21B27,2013-08-18 05:51:00,
2013-08-18 00:56:00,70.2,61.1,29.95,ENE,77,0.0,0.0,73,0.00,,,0.00,WeatherCatV1.21B27,2013-08-18 05:56:00,
2013-08-18 01:01:00,69.8,61.5,29.95,ENE,77,0.0,0.0,75,0.00,,,0.00,WeatherCatV1.21B27,2013-08-18 06:01:00,
2013-08-18 01:06:00,69.8,61.9,29.95,ENE,77,0.0,0.0,76,0.00,,,0.00,WeatherCatV1.21B27,2013-08-18 06:06:00,
2013-08-18 01:11:00,69.8,63.0,29.95,ENE,77,0.0,0.0,79,0.00,,,0.00,WeatherCatV1.21B27,2013-08-18 06:11:00,
2013-08-18 01:16:00,69.8,63.3,29.95,ENE,77,0.0,0.0,80,0.00,,,0.00,WeatherCatV1.21B27,2013-08-18 06:16:00,
2013-08-18 01:21:00,69.6,62.8,29.95,ENE,77,0.0,0.0,79,0.00,,,0.00,WeatherCatV1.21B27,2013-08-18 06:21:00,
2013-08-18 01:26:00,69.2,61.7,29.95,ENE,77,0.0,0.0,77,0.00,,,0.00,WeatherCatV1.21B27,2013-08-18 06:26:00,
2013-08-18 01:31:00,69.1,62.7,29.95,ENE,77,0.0,0.0,80,0.00,,,0.00,WeatherCatV1.21B27,2013-08-18 06:31:00,
2013-08-18 01:36:00,69.2,62.8,29.96,ENE,77,0.0,0.0,80,0.00,,,0.00,WeatherCatV1.21B27,2013-08-18 06:36:00,
2013-08-18 01:41:00,69.0,62.9,29.96,ENE,77,0.0,0.0,81,0.00,,,0.00,WeatherCatV1.21B27,2013-08-18 06:41:00,
2013-08-18 01:46:00,68.8,62.7,29.96,ENE,77,0.0,0.0,81,0.00,,,0.00,WeatherCatV1.21B27,2013-08-18 06:46:00,
2013-08-18 01:51:00,68.7,62.6,29.96,ENE,77,0.0,0.0,81,0.00,,,0.00,WeatherCatV1.21B27,2013-08-18 06:51:00,
2013-08-18 01:56:00,68.6,62.9,29.96,ENE,77,0.0,0.0,82,0.00,,,0.00,WeatherCatV1.21B27,2013-08-18 06:56:00,
2013-08-18 02:01:00,68.5,63.1,29.95,ENE,77,0.0,0.0,83,0.00,,,0.00,WeatherCatV1.21B27,2013-08-18 07:01:00,
2013-08-18 02:06:00,68.5,63.8,29.95,ENE,77,0.0,0.0,85,0.00,,,0.00,WeatherCatV1.21B27,2013-08-18 07:06:00,
2013-08-18 02:11:00,68.6,63.9,29.95,ENE,77,0.0,0.0,85,0.00,,,0.00,WeatherCatV1.21B27,2013-08-18 07:11:00,
2013-08-18 02:16:00,68.6,63.6,29.95,ENE,77,0.0,0.0,84,0.00,,,0.00,WeatherCatV1.21B27,2013-08-18 07:16:00,
2013-08-18 02:21:00,68.5,63.5,29.95,ENE,77,0.0,0.0,84,0.00,,,0.00,WeatherCatV1.21B27,2013-08-18 07:21:00,
2013-08-18 02:26:00,68.4,63.4,29.95,ENE,77,0.0,0.0,84,0.00,,,0.00,WeatherCatV1.21B27,2013-08-18 07:26:00,
2013-08-18 02:31:00,68.3,63.3,29.95,ENE,77,0.0,0.0,84,0.00,,,0.00,WeatherCatV1.21B27,2013-08-18 07:31:00,
2013-08-18 02:36:00,68.1,63.1,29.95,ENE,77,0.0,0.0,84,0.00,,,0.00,WeatherCatV1.21B27,2013-08-18 07:36:00,
2013-08-18 02:41:00,68.0,63.0,29.95,ENE,77,0.0,0.0,84,0.00,,,0.00,WeatherCatV1.21B27,2013-08-18 07:41:00,
2013-08-18 02:46:00,67.9,63.2,29.95,ENE,77,0.0,0.0,85,0.00,,,0.00,WeatherCatV1.21B27,2013-08-18 07:46:00,
2013-08-18 02:51:00,67.9,63.5,29.95,ENE,77,0.0,0.0,86,0.00,,,0.00,WeatherCatV1.21B27,2013-08-18 07:51:00,
2013-08-18 02:56:00,67.8,63.1,29.95,ENE,77,0.0,0.0,85,0.00,,,0.00,WeatherCatV1.21B27,2013-08-18 07:56:00,
2013-08-18 03:01:00,67.6,62.9,29.95,ENE,77,0.0,0.0,85,0.00,,,0.00,WeatherCatV1.21B27,2013-08-18 08:01:00,
2013-08-18 03:06:00,67.4,63.1,29.95,ENE,77,0.0,0.0,86,0.00,,,0.00,WeatherCatV1.21B27,2013-08-18 08:06:00,
2013-08-18 03:11:00,67.4,63.1,29.95,ENE,77,0.0,0.0,86,0.00,,,0.00,WeatherCatV1.21B27,2013-08-18 08:11:00,
2013-08-18 03:16:00,67.4,63.1,29.95,ENE,77,0.0,0.0,86,0.00,,,0.00,WeatherCatV1.21B27,2013-08-18 08:16:00,
2013-08-18 03:21:00,67.5,63.5,29.95,ENE,77,0.0,0.0,87,0.00,,,0.00,WeatherCatV1.21B27,2013-08-18 08:21:00,
2013-08-18 03:26:00,67.5,63.2,29.95,ENE,77,0.0,0.0,86,0.00,,,0.00,WeatherCatV1.21B27,2013-08-18 08:26:00,
2013-08-18 03:31:00,67.4,63.4,29.95,ENE,77,0.0,0.0,87,0.00,,,0.00,WeatherCatV1.21B27,2013-08-18 08:31:00,
2013-08-18 03:36:00,67.3,63.3,29.95,ENE,77,0.0,0.0,87,0.00,,,0.00,WeatherCatV1.21B27,2013-08-18 08:36:00,
2013-08-18 03:41:00,67.1,63.1,29.95,ENE,77,0.0,0.0,87,0.00,,,0.00,WeatherCatV1.21B27,2013-08-18 08:41:00,
2013-08-18 03:46:00,67.1,63.1,29.94,ENE,77,0.0,0.0,87,0.00,,,0.00,WeatherCatV1.21B27,2013-08-18 08:46:00,
2013-08-18 03:51:00,67.1,63.4,29.94,ENE,77,0.0,0.0,88,0.00,,,0.00,WeatherCatV1.21B27,2013-08-18 08:51:00,
2013-08-18 03:56:00,67.2,63.8,29.95,ENE,77,0.0,0.0,89,0.00,,,0.00,WeatherCatV1.21B27,2013-08-18 08:56:00,
2013-08-18 04:01:00,67.3,63.6,29.95,ENE,77,0.0,0.0,88,0.00,,,0.00,WeatherCatV1.21B27,2013-08-18 09:01:00,
2013-08-18 04:06:00,67.2,63.5,29.95,ENE,77,0.0,0.0,88,0.00,,,0.00,WeatherCatV1.21B27,2013-08-18 09:06:00,
2013-08-18 04:11:00,67.1,63.7,29.95,ENE,77,0.0,0.0,89,0.00,,,0.00,WeatherCatV1.21B27,2013-08-18 09:11:00,
2013-08-18 04:16:00,67.0,63.6,29.94,ENE,77,0.0,0.0,89,0.00,,,0.00,WeatherCatV1.21B27,2013-08-18 09:16:00,
2013-08-18 04:21:00,66.8,63.5,29.95,ENE,77,0.0,0.0,89,0.00,,,0.00,WeatherCatV1.21B27,2013-08-18 09:21:00,
2013-08-18 04:26:00,66.7,63.3,29.95,ENE,77,0.0,0.0,89,0.00,,,0.00,WeatherCatV1.21B27,2013-08-18 09:26:00,
2013-08-18 04:31:00,66.7,63.3,29.95,ENE,77,0.0,0.0,89,0.00,,,0.00,WeatherCatV1.21B27,2013-08-18 09:31:00,
2013-08-18 04:36:00,66.6,63.2,29.94,ENE,77,0.0,0.0,89,0.00,,,0.00,WeatherCatV1.21B27,2013-08-18 09:36:00,
2013-08-18 04:41:00,66.5,63.2,29.94,ENE,77,0.0,0.0,89,0.00,,,0.00,WeatherCatV1.21B27,2013-08-18 09:41:00,
2013-08-18 04:46:00,66.2,62.9,29.95,ENE,77,0.0,0.0,89,0.00,,,0.00,WeatherCatV1.21B27,2013-08-18 09:46:00,
2013-08-18 04:51:00,66.0,62.7,29.94,ENE,77,0.0,0.0,89,0.00,,,0.00,WeatherCatV1.21B27,2013-08-18 09:51:00,
2013-08-18 04:56:00,65.9,62.9,29.94,ENE,77,0.0,0.0,90,0.00,,,0.00,WeatherCatV1.21B27,2013-08-18 09:56:00,
2013-08-18 05:01:00,65.7,62.7,29.94,ENE,77,0.0,0.0,90,0.00,,,0.00,WeatherCatV1.21B27,2013-08-18 10:01:00,
2013-08-18 05:06:00,65.6,62.9,29.94,ENE,77,0.0,0.0,91,0.00,,,0.00,WeatherCatV1.21B27,2013-08-18 10:06:00,
2013-08-18 05:11:00,65.6,62.9,29.94,ENE,77,0.0,0.0,91,0.00,,,0.00,WeatherCatV1.21B27,2013-08-18 10:11:00,
2013-08-18 05:16:00,65.5,62.8,29.94,ENE,77,0.0,0.0,91,0.00,,,0.00,WeatherCatV1.21B27,2013-08-18 10:16:00,
2013-08-18 05:21:00,65.5,62.8,29.94,ENE,77,0.0,0.0,91,0.00,,,0.00,WeatherCatV1.21B27,2013-08-18 10:21:00,
2013-08-18 05:26:00,65.5,62.8,29.94,ENE,77,0.0,0.0,91,0.00,,,0.00,WeatherCatV1.21B27,2013-08-18 10:26:00,
2013-08-18 05:31:00,65.4,63.0,29.94,ENE,77,0.0,0.0,92,0.00,,,0.00,WeatherCatV1.21B27,2013-08-18 10:31:00,
2013-08-18 05:36:00,65.5,63.1,29.94,ENE,77,0.0,0.0,92,0.00,,,0.00,WeatherCatV1.21B27,2013-08-18 10:36:00,
2013-08-18 05:41:00,65.5,63.1,29.94,ENE,77,0.0,0.0,92,0.00,,,0.00,WeatherCatV1.21B27,2013-08-18 10:41:00,
2013-08-18 05:46:00,65.4,63.3,29.95,ENE,77,0.0,0.0,93,0.00,,,0.00,WeatherCatV1.21B27,2013-08-18 10:46:00,
2013-08-18 05:51:00,65.5,63.4,29.94,ENE,77,0.0,0.0,93,0.00,,,0.00,WeatherCatV1.21B27,2013-08-18 10:51:00,
2013-08-18 05:56:00,65.5,63.4,29.94,ENE,77,0.0,0.0,93,0.00,,,0.00,WeatherCatV1.21B27,2013-08-18 10:56:00,
2013-08-18 06:01:00,65.4,63.3,29.94,ENE,77,0.0,0.0,93,0.00,,,0.00,WeatherCatV1.21B27,2013-08-18 11:01:00,
2013-08-18 06:06:00,65.4,63.3,29.95,ENE,77,0.0,0.0,93,0.00,,,0.00,WeatherCatV1.21B27,2013-08-18 11:06:00,
2013-08-18 06:11:00,65.3,63.2,29.94,ENE,77,0.0,0.0,93,0.00,,,0.00,WeatherCatV1.21B27,2013-08-18 11:11:00,
2013-08-18 06:16:00,65.2,63.1,29.94,ENE,77,0.0,0.0,93,0.00,,,0.00,WeatherCatV1.21B27,2013-08-18 11:16:00,
2013-08-18 06:21:00,65.2,62.8,29.95,ENE,77,0.0,0.0,92,0.00,,,0.00,WeatherCatV1.21B27,2013-08-18 11:21:00,
2013-08-18 06:26:00,64.9,62.5,29.95,ENE,77,0.0,0.0,92,0.00,,,0.00,WeatherCatV1.21B27,2013-08-18 11:26:00,
2013-08-18 06:31:00,64.7,62.3,29.95,ENE,77,0.0,0.0,92,0.00,,,0.00,WeatherCatV1.21B27,2013-08-18 11:31:00,
2013-08-18 06:36:00,64.6,62.5,29.95,ENE,77,0.0,0.0,93,0.00,,,0.00,WeatherCatV1.21B27,2013-08-18 11:36:00,
2013-08-18 06:41:00,64.6,62.5,29.95,ENE,77,0.0,0.0,93,0.00,,,0.00,WeatherCatV1.21B27,2013-08-18 11:41:00,
2013-08-18 06:46:00,64.7,62.6,29.95,ENE,77,0.0,0.0,93,0.00,,,0.00,WeatherCatV1.21B27,2013-08-18 11:46:00,
2013-08-18 06:51:00,64.7,62.6,29.95,ENE,77,0.0,0.0,93,0.00,,,0.00,WeatherCatV1.21B27,2013-08-18 11:51:00,
2013-08-18 06:56:00,64.6,62.5,29.95,ENE,77,0.0,0.0,93,0.00,,,0.00,WeatherCatV1.21B27,2013-08-18 11:56:00,
2013-08-18 07:01:00,64.5,62.4,29.96,ENE,77,0.0,0.0,93,0.00,,,0.00,WeatherCatV1.21B27,2013-08-18 12:01:00,
2013-08-18 07:06:00,64.4,62.3,29.96,ENE,77,0.0,0.0,93,0.00,,,0.00,WeatherCatV1.21B27,2013-08-18 12:06:00,
2013-08-18 07:11:00,64.3,62.5,29.96,ENE,77,0.0,0.0,94,0.00,,,0.00,WeatherCatV1.21B27,2013-08-18 12:11:00,
2013-08-18 07:16:00,64.3,62.5,29.96,ENE,77,0.0,0.0,94,0.00,,,0.00,WeatherCatV1.21B27,2013-08-18 12:16:00,
2013-08-18 07:21:00,64.5,62.7,29.96,ENE,77,0.0,0.0,94,0.00,,,0.00,WeatherCatV1.21B27,2013-08-18 12:21:00,
2013-08-18 07:26:00,64.6,62.8,29.96,ENE,77,0.0,0.0,94,0.00,,,0.00,WeatherCatV1.21B27,2013-08-18 12:26:00,
2013-08-18 07:31:00,64.7,62.9,29.96,ENE,77,0.0,0.0,94,0.00,,,0.00,WeatherCatV1.21B27,2013-08-18 12:31:00,
2013-08-18 07:36:00,64.9,63.1,29.96,ENE,77,0.0,0.0,94,0.00,,,0.00,WeatherCatV1.21B27,2013-08-18 12:36:00,
2013-08-18 07:41:00,65.1,63.3,29.96,ENE,77,0.0,0.0,94,0.00,,,0.00,WeatherCatV1.21B27,2013-08-18 12:41:00,
2013-08-18 07:46:00,65.4,63.3,29.97,ENE,77,0.0,0.0,93,0.00,,,0.00,WeatherCatV1.21B27,2013-08-18 12:46:00,
2013-08-18 07:51:00,66.0,63.9,29.97,ENE,77,0.0,0.0,93,0.00,,,0.00,WeatherCatV1.21B27,2013-08-18 12:51:00,
2013-08-18 07:56:00,66.8,64.7,29.97,SW,227,0.0,0.0,93,0.00,,,0.00,WeatherCatV1.21B27,2013-08-18 12:56:00,
2013-08-18 08:01:00,67.4,64.7,29.97,SW,218,1.0,1.0,91,0.00,,,0.00,WeatherCatV1.21B27,2013-08-18 13:01:00,
2013-08-18 08:06:00,68.0,64.3,29.98,WSW,243,0.0,1.0,88,0.00,,,0.00,WeatherCatV1.21B27,2013-08-18 13:06:00,
2013-08-18 08:11:00,68.7,64.3,29.98,SW,231,0.0,1.0,86,0.00,,,0.00,WeatherCatV1.21B27,2013-08-18 13:11:00,
2013-08-18 08:16:00,69.3,64.6,29.98,SW,227,0.0,0.0,85,0.00,,,0.00,WeatherCatV1.21B27,2013-08-18 13:16:00,
2013-08-18 08:22:00,70.0,64.9,29.98,SW,230,0.0,0.0,84,0.00,,,0.00,WeatherCatV1.21B27,2013-08-18 13:22:00,
2013-08-18 08:27:00,70.5,65.4,29.99,SW,229,0.0,0.0,84,0.00,,,0.00,WeatherCatV1.21B27,2013-08-18 13:27:00,
2013-08-18 08:32:00,71.0,64.9,29.99,West,262,0.0,0.0,81,0.00,,,0.00,WeatherCatV1.21B27,2013-08-18 13:32:00,
2013-08-18 08:37:00,71.2,64.7,29.99,WSW,238,0.0,0.0,80,0.00,,,0.00,WeatherCatV1.21B27,2013-08-18 13:37:00,
2013-08-18 08:42:00,71.6,64.7,29.99,WSW,238,0.0,0.0,79,0.00,,,0.00,WeatherCatV1.21B27,2013-08-18 13:42:00,
2013-08-18 08:47:00,72.2,64.2,29.99,SW,233,0.0,0.0,76,0.00,,,0.00,WeatherCatV1.21B27,2013-08-18 13:47:00,
2013-08-18 08:52:00,73.1,65.1,30.00,South,191,0.0,0.0,76,0.00,,,0.00,WeatherCatV1.21B27,2013-08-18 13:52:00,
2013-08-18 08:57:00,73.9,65.5,30.00,South,191,0.0,0.0,75,0.00,,,0.00,WeatherCatV1.21B27,2013-08-18 13:57:00,
2013-08-18 09:02:00,74.4,65.2,30.00,SSW,193,0.0,0.0,73,0.00,,,0.00,WeatherCatV1.21B27,2013-08-18 14:02:00,
2013-08-18 09:07:00,74.9,64.8,30.00,SSW,194,0.0,0.0,71,0.00,,,0.00,WeatherCatV1.21B27,2013-08-18 14:07:00,
2013-08-18 09:12:00,75.7,65.2,30.00,SSW,193,0.0,0.0,70,0.00,,,0.00,WeatherCatV1.21B27,2013-08-18 14:12:00,
2013-08-18 09:17:00,76.7,64.0,30.00,ESE,119,0.0,0.0,65,0.00,,,0.00,WeatherCatV1.21B27,2013-08-18 14:17:00,
2013-08-18 09:22:00,77.9,64.3,30.00,South,183,0.0,0.0,63,0.00,,,0.00,WeatherCatV1.21B27,2013-08-18 14:22:00,
2013-08-18 09:27:00,78.9,63.3,30.00,East,82,0.0,2.0,59,0.00,,,0.00,WeatherCatV1.21B27,2013-08-18 14:27:00,
2013-08-18 09:32:00,79.6,62.5,30.00,SW,219,0.0,0.0,56,0.00,,,0.00,WeatherCatV1.21B27,2013-08-18 14:32:00,
2013-08-18 09:37:00,80.4,63.8,30.00,ESE,115,0.0,0.0,57,0.00,,,0.00,WeatherCatV1.21B27,2013-08-18 14:37:00,
2013-08-18 09:42:00,81.1,63.4,30.01,SSW,193,0.0,1.0,55,0.00,,,0.00,WeatherCatV1.21B27,2013-08-18 14:42:00,
2013-08-18 09:47:00,81.9,62.5,30.00,East,94,1.0,3.0,52,0.00,,,0.00,WeatherCatV1.21B27,2013-08-18 14:47:00,
2013-08-18 09:52:00,81.9,62.5,30.01,ESE,110,0.0,2.0,52,0.00,,,0.00,WeatherCatV1.21B27,2013-08-18 14:52:00,
2013-08-18 09:57:00,82.7,63.2,30.01,SSW,192,1.0,1.0,52,0.00,,,0.00,WeatherCatV1.21B27,2013-08-18 14:57:00,
2013-08-18 10:02:00,83.3,64.3,30.01,SSE,164,1.0,2.0,53,0.00,,,0.00,WeatherCatV1.21B27,2013-08-18 15:02:00,
2013-08-18 10:07:00,84.3,64.2,30.01,NNE,25,2.0,3.0,51,0.00,,,0.00,WeatherCatV1.21B27,2013-08-18 15:07:00,
2013-08-18 10:12:00,84.7,65.1,30.01,SE,136,0.0,1.0,52,0.00,,,0.00,WeatherCatV1.21B27,2013-08-18 15:12:00,
2013-08-18 10:17:00,85.5,65.3,30.01,SSE,162,2.0,2.0,51,0.00,,,0.00,WeatherCatV1.21B27,2013-08-18 15:17:00,
2013-08-18 10:22:00,86.3,66.6,30.01,SSE,151,0.0,2.0,52,0.00,,,0.00,WeatherCatV1.21B27,2013-08-18 15:22:00,
2013-08-18 10:27:00,86.4,65.5,30.01,WNW,300,0.0,0.0,50,0.00,,,0.00,WeatherCatV1.21B27,2013-08-18 15:27:00,
2013-08-18 10:32:00,86.6,65.7,30.01,ESE,122,0.0,1.0,50,0.00,,,0.00,WeatherCatV1.21B27,2013-08-18 15:32:00,
2013-08-18 10:37:00,87.2,67.9,30.01,ESE,122,0.0,0.0,53,0.00,,,0.00,WeatherCatV1.21B27,2013-08-18 15:37:00,
2013-08-18 10:42:00,87.9,67.5,30.01,SSW,201,1.0,2.0,51,0.00,,,0.00,WeatherCatV1.21B27,2013-08-18 15:42:00,
2013-08-18 10:47:00,88.5,67.4,30.01,East,100,0.0,2.0,50,0.00,,,0.00,WeatherCatV1.21B27,2013-08-18 15:47:00,
2013-08-18 10:52:00,88.4,66.8,30.01,ESE,107,0.0,1.0,49,0.00,,,0.00,WeatherCatV1.21B27,2013-08-18 15:52:00,
2013-08-18 10:57:00,88.8,67.7,30.01,SW,236,0.0,2.0,50,0.00,,,0.00,WeatherCatV1.21B27,2013-08-18 15:57:00,
2013-08-18 11:02:00,88.8,67.1,30.01,ESE,123,1.0,1.0,49,0.00,,,0.00,WeatherCatV1.21B27,2013-08-18 16:02:00,
2013-08-18 11:07:00,89.3,67.0,30.01,SSE,162,0.0,1.0,48,0.00,,,0.00,WeatherCatV1.21B27,2013-08-18 16:07:00,
2013-08-18 11:12:00,89.7,66.8,30.01,SSE,167,0.0,0.0,47,0.00,,,0.00,WeatherCatV1.21B27,2013-08-18 16:12:00,
2013-08-18 11:17:00,90.1,66.5,30.01,SSE,160,2.0,2.0,46,0.00,,,0.00,WeatherCatV1.21B27,2013-08-18 16:17:00,
2013-08-18 11:22:00,90.6,65.7,30.00,SSW,210,0.0,1.0,44,0.00,,,0.00,WeatherCatV1.21B27,2013-08-18 16:22:00,
2013-08-18 11:27:00,91.1,65.4,30.00,SSE,165,0.0,2.0,43,0.00,,,0.00,WeatherCatV1.21B27,2013-08-18 16:27:00,
2013-08-18 11:32:00,91.4,64.3,30.00,South,176,1.0,3.0,41,0.00,,,0.00,WeatherCatV1.21B27,2013-08-18 16:32:00,
2013-08-18 11:37:00,91.5,59.9,30.00,SSW,208,0.0,1.0,35,0.00,,,0.00,WeatherCatV1.21B27,2013-08-18 16:37:00,
2013-08-18 11:42:00,92.3,63.0,30.00,WNW,295,0.0,1.0,38,0.00,,,0.00,WeatherCatV1.21B27,2013-08-18 16:42:00,
2013-08-18 11:47:00,92.8,63.4,30.00,South,169,1.0,2.0,38,0.00,,,0.00,WeatherCatV1.21B27,2013-08-18 16:47:00,
2013-08-18 11:52:00,92.9,62.7,30.00,SSW,198,1.0,2.0,37,0.00,,,0.00,WeatherCatV1.21B27,2013-08-18 16:52:00,
2013-08-18 11:57:00,92.8,61.9,30.00,SW,232,3.0,3.0,36,0.00,,,0.00,WeatherCatV1.21B27,2013-08-18 16:57:00,
2013-08-18 12:02:00,92.6,62.5,30.00,ESE,112,2.0,2.0,37,0.00,,,0.00,WeatherCatV1.21B27,2013-08-18 17:02:00,
2013-08-18 12:07:00,93.4,62.4,30.00,SE,135,0.0,2.0,36,0.00,,,0.00,WeatherCatV1.21B27,2013-08-18 17:07:00,
2013-08-18 12:12:00,94.0,62.1,30.00,East,89,2.0,5.0,35,0.00,,,0.00,WeatherCatV1.21B27,2013-08-18 17:12:00,
2013-08-18 12:17:00,93.3,63.1,30.00,ENE,74,1.0,2.0,37,0.00,,,0.00,WeatherCatV1.21B27,2013-08-18 17:17:00,
2013-08-18 12:22:00,93.1,62.1,30.00,SSW,212,0.0,4.0,36,0.00,,,0.00,WeatherCatV1.21B27,2013-08-18 17:22:00,
2013-08-18 12:27:00,93.4,62.4,30.00,South,176,2.0,3.0,36,0.00,,,0.00,WeatherCatV1.21B27,2013-08-18 17:27:00,
2013-08-18 12:32:00,94.3,61.6,30.00,SSW,208,1.0,3.0,34,0.00,,,0.00,WeatherCatV1.21B27,2013-08-18 17:32:00,
2013-08-18 12:37:00,94.8,61.2,29.99,SSW,192,2.0,3.0,33,0.00,,,0.00,WeatherCatV1.21B27,2013-08-18 17:37:00,
2013-08-18 12:42:00,94.5,60.9,29.99,NW,308,2.0,4.0,33,0.00,,,0.00,WeatherCatV1.21B27,2013-08-18 17:42:00,
2013-08-18 12:47:00,94.4,62.5,29.99,SE,142,2.0,4.0,35,0.00,,,0.00,WeatherCatV1.21B27,2013-08-18 17:47:00,
2013-08-18 12:52:00,94.9,60.4,29.99,SSE,155,2.0,3.0,32,0.00,,,0.00,WeatherCatV1.21B27,2013-08-18 17:52:00,
2013-08-18 12:57:00,94.3,60.7,29.99,SW,214,1.0,3.0,33,0.00,,,0.00,WeatherCatV1.21B27,2013-08-18 17:57:00,
2013-08-18 13:02:00,95.2,61.5,29.98,SW,227,3.0,4.0,33,0.00,,,0.00,WeatherCatV1.21B27,2013-08-18 18:02:00,
2013-08-18 13:07:00,95.5,60.0,29.98,SSW,193,2.0,3.0,31,0.00,,,0.00,WeatherCatV1.21B27,2013-08-18 18:07:00,
2013-08-18 13:12:00,95.1,60.5,29.98,SSE,150,2.0,2.0,32,0.00,,,0.00,WeatherCatV1.21B27,2013-08-18 18:12:00,
2013-08-18 13:17:00,95.9,61.2,29.98,ENE,63,0.0,3.0,32,0.00,,,0.00,WeatherCatV1.21B27,2013-08-18 18:17:00,
2013-08-18 13:22:00,96.3,58.8,29.98,WNW,285,2.0,7.0,29,0.00,,,0.00,WeatherCatV1.21B27,2013-08-18 18:22:00,
2013-08-18 13:27:00,95.2,57.9,29.98,NNW,333,2.0,4.0,29,0.00,,,0.00,WeatherCatV1.21B27,2013-08-18 18:27:00,
2013-08-18 13:32:00,95.6,58.2,29.98,SW,232,0.0,4.0,29,0.00,,,0.00,WeatherCatV1.21B27,2013-08-18 18:32:00,
2013-08-18 13:37:00,96.1,56.7,29.98,WSW,246,1.0,4.0,27,0.00,,,0.00,WeatherCatV1.21B27,2013-08-18 18:37:00,
2013-08-18 13:42:00,96.7,58.2,29.98,NNE,26,0.0,3.0,28,0.00,,,0.00,WeatherCatV1.21B27,2013-08-18 18:42:00,
2013-08-18 13:47:00,97.4,57.8,29.98,SSE,162,1.0,4.0,27,0.00,,,0.00,WeatherCatV1.21B27,2013-08-18 18:47:00,
2013-08-18 13:52:00,98.0,58.3,29.98,South,186,0.0,2.0,27,0.00,,,0.00,WeatherCatV1.21B27,2013-08-18 18:52:00,
2013-08-18 13:58:00,98.1,57.3,29.97,ESE,114,3.0,4.0,26,0.00,,,0.00,WeatherCatV1.21B27,2013-08-18 18:58:00,
2013-08-18 14:03:00,97.5,56.8,29.97,WSW,252,0.0,1.0,26,0.00,,,0.00,WeatherCatV1.21B27,2013-08-18 19:03:00,
2013-08-18 14:08:00,97.5,56.8,29.97,East,94,1.0,3.0,26,0.00,,,0.00,WeatherCatV1.21B27,2013-08-18 19:08:00,
2013-08-18 14:13:00,97.4,57.8,29.97,ENE,59,2.0,2.0,27,0.00,,,0.00,WeatherCatV1.21B27,2013-08-18 19:13:00,
2013-08-18 14:18:00,98.4,58.6,29.97,SSE,150,2.0,3.0,27,0.00,,,0.00,WeatherCatV1.21B27,2013-08-18 19:18:00,
2013-08-18 14:23:00,99.1,57.0,29.97,West,266,2.0,2.0,25,0.00,,,0.00,WeatherCatV1.21B27,2013-08-18 19:23:00,
2013-08-18 14:28:00,97.1,55.4,29.97,WNW,290,0.0,1.0,25,0.00,,,0.00,WeatherCatV1.21B27,2013-08-18 19:28:00,
2013-08-18 14:33:00,97.4,57.8,29.97,ENE,76,3.0,4.0,27,0.00,,,0.00,WeatherCatV1.21B27,2013-08-18 19:33:00,
2013-08-18 14:38:00,97.5,56.8,29.97,East,98,0.0,3.0,26,0.00,,,0.00,WeatherCatV1.21B27,2013-08-18 19:38:00,
2013-08-18 14:43:00,98.6,55.5,29.96,East,97,0.0,2.0,24,0.00,,,0.00,WeatherCatV1.21B27,2013-08-18 19:43:00,
2013-08-18 14:48:00,99.1,57.0,29.96,SE,131,4.0,5.0,25,0.00,,,0.00,WeatherCatV1.21B27,2013-08-18 19:48:00,
2013-08-18 14:53:00,98.7,57.8,29.96,SSE,168,2.0,4.0,26,0.00,,,0.00,WeatherCatV1.21B27,2013-08-18 19:53:00,
2013-08-18 14:58:00,99.6,57.5,29.96,East,86,2.0,2.0,25,0.00,,,0.00,WeatherCatV1.21B27,2013-08-18 19:58:00,
2013-08-18 15:03:00,99.3,56.1,29.96,South,180,3.0,5.0,24,0.00,,,0.00,WeatherCatV1.21B27,2013-08-18 20:03:00,
2013-08-18 15:08:00,99.7,56.4,29.95,East,101,2.0,3.0,24,0.00,,,0.00,WeatherCatV1.21B27,2013-08-18 20:08:00,
2013-08-18 15:13:00,99.2,57.1,29.95,SE,143,2.0,4.0,25,0.00,,,0.00,WeatherCatV1.21B27,2013-08-18 20:13:00,
2013-08-18 15:18:00,100.4,57.0,29.95,SE,139,1.0,1.0,24,0.00,,,0.00,WeatherCatV1.21B27,2013-08-18 20:18:00,
2013-08-18 15:23:00,100.9,57.4,29.95,SE,138,1.0,4.0,24,0.00,,,0.00,WeatherCatV1.21B27,2013-08-18 20:23:00,
2013-08-18 15:28:00,100.8,57.3,29.95,ENE,61,4.0,5.0,24,0.00,,,0.00,WeatherCatV1.21B27,2013-08-18 20:28:00,
2013-08-18 15:33:00,100.5,58.2,29.95,South,179,1.0,5.0,25,0.00,,,0.00,WeatherCatV1.21B27,2013-08-18 20:33:00,
2013-08-18 15:38:00,99.9,56.6,29.95,South,181,3.0,4.0,24,0.00,,,0.00,WeatherCatV1.21B27,2013-08-18 20:38:00,
2013-08-18 15:43:00,99.6,57.5,29.95,East,89,1.0,3.0,25,0.00,,,0.00,WeatherCatV1.21B27,2013-08-18 20:43:00,
2013-08-18 15:48:00,99.7,57.5,29.95,ESE,109,2.0,5.0,25,0.00,,,0.00,WeatherCatV1.21B27,2013-08-18 20:48:00,
2013-08-18 15:54:00,99.3,57.2,29.95,NNW,332,1.0,4.0,25,0.00,,,0.00,WeatherCatV1.21B27,2013-08-18 20:54:00,
2013-08-18 15:59:00,99.4,55.0,29.94,East,84,2.0,3.0,23,0.00,,,0.00,WeatherCatV1.21B27,2013-08-18 20:59:00,
2013-08-18 16:04:00,99.1,55.9,29.94,East,94,1.0,2.0,24,0.00,,,0.00,WeatherCatV1.21B27,2013-08-18 21:04:00,
2013-08-18 16:09:00,99.5,55.1,29.94,SE,143,0.0,2.0,23,0.00,,,0.00,WeatherCatV1.21B27,2013-08-18 21:09:00,
2013-08-18 16:14:00,99.2,54.8,29.94,SSE,155,3.0,5.0,23,0.00,,,0.00,WeatherCatV1.21B27,2013-08-18 21:14:00,
2013-08-18 16:19:00,98.7,54.4,29.94,ENE,59,6.0,6.0,23,0.00,,,0.00,WeatherCatV1.21B27,2013-08-18 21:19:00,
2013-08-18 16:24:00,98.5,53.0,29.93,ESE,107,2.0,5.0,22,0.00,,,0.00,WeatherCatV1.21B27,2013-08-18 21:24:00,
2013-08-18 16:29:00,98.5,54.2,29.93,ENE,78,0.0,3.0,23,0.00,,,0.00,WeatherCatV1.21B27,2013-08-18 21:29:00,
2013-08-18 16:34:00,98.7,53.2,29.93,SE,134,0.0,4.0,22,0.00,,,0.00,WeatherCatV1.21B27,2013-08-18 21:34:00,
2013-08-18 16:39:00,98.9,54.6,29.93,East,97,2.0,4.0,23,0.00,,,0.00,WeatherCatV1.21B27,2013-08-18 21:39:00,
2013-08-18 16:44:00,98.9,54.6,29.93,WSW,253,2.0,3.0,23,0.00,,,0.00,WeatherCatV1.21B27,2013-08-18 21:44:00,
2013-08-18 16:49:00,98.7,55.6,29.93,SE,124,2.0,6.0,24,0.00,,,0.00,WeatherCatV1.21B27,2013-08-18 21:49:00,
2013-08-18 16:54:00,99.1,54.7,29.93,SSW,198,0.0,2.0,23,0.00,,,0.00,WeatherCatV1.21B27,2013-08-18 21:54:00,
2013-08-18 16:59:00,99.6,53.9,29.93,SSW,205,2.0,4.0,22,0.00,,,0.00,WeatherCatV1.21B27,2013-08-18 21:59:00,
2013-08-18 17:04:00,99.5,53.8,29.93,ENE,72,3.0,5.0,22,0.00,,,0.00,WeatherCatV1.21B27,2013-08-18 22:04:00,
2013-08-18 17:09:00,99.0,53.4,29.93,East,86,2.0,3.0,22,0.00,,,0.00,WeatherCatV1.21B27,2013-08-18 22:09:00,
2013-08-18 17:14:00,98.5,54.2,29.92,SE,127,1.0,3.0,23,0.00,,,0.00,WeatherCatV1.21B27,2013-08-18 22:14:00,
2013-08-18 17:19:00,98.3,55.2,29.92,ESE,122,1.0,4.0,24,0.00,,,0.00,WeatherCatV1.21B27,2013-08-18 22:19:00,
2013-08-18 17:24:00,98.5,57.6,29.92,South,186,0.0,2.0,26,0.00,,,0.00,WeatherCatV1.21B27,2013-08-18 22:24:00,
2013-08-18 17:29:00,98.7,55.6,29.92,SSE,162,1.0,5.0,24,0.00,,,0.00,WeatherCatV1.21B27,2013-08-18 22:29:00,
2013-08-18 17:34:00,98.3,56.4,29.92,East,84,4.0,4.0,25,0.00,,,0.00,WeatherCatV1.21B27,2013-08-18 22:34:00,
2013-08-18 17:39:00,97.6,56.9,29.92,ESE,104,2.0,4.0,26,0.00,,,0.00,WeatherCatV1.21B27,2013-08-18 22:39:00,
2013-08-18 17:44:00,97.5,56.8,29.92,ENE,66,1.0,3.0,26,0.00,,,0.00,WeatherCatV1.21B27,2013-08-18 22:44:00,
2013-08-18 17:49:00,97.4,56.7,29.92,ENE,75,1.0,2.0,26,0.00,,,0.00,WeatherCatV1.21B27,2013-08-18 22:49:00,
2013-08-18 17:54:00,97.4,57.8,29.92,East,94,0.0,2.0,27,0.00,,,0.00,WeatherCatV1.21B27,2013-08-18 22:54:00,
2013-08-18 17:59:00,96.8,56.2,29.92,SSE,157,0.0,5.0,26,0.00,,,0.00,WeatherCatV1.21B27,2013-08-18 22:59:00,
2013-08-18 18:04:00,97.1,57.5,29.92,South,176,1.0,1.0,27,0.00,,,0.00,WeatherCatV1.21B27,2013-08-18 23:04:00,
2013-08-18 18:09:00,96.9,58.3,29.92,SE,144,1.0,4.0,28,0.00,,,0.00,WeatherCatV1.21B27,2013-08-18 23:09:00,
2013-08-18 18:14:00,96.6,58.1,29.92,SSE,152,1.0,3.0,28,0.00,,,0.00,WeatherCatV1.21B27,2013-08-18 23:14:00,
2013-08-18 18:20:00,96.3,56.8,29.92,South,187,2.0,2.0,27,0.00,,,0.00,WeatherCatV1.21B27,2013-08-18 23:20:00,
2013-08-18 18:25:00,96.4,57.9,29.92,ESE,104,2.0,3.0,28,0.00,,,0.00,WeatherCatV1.21B27,2013-08-18 23:25:00,
2013-08-18 18:30:00,96.0,57.6,29.92,ESE,117,0.0,2.0,28,0.00,,,0.00,WeatherCatV1.21B27,2013-08-18 23:30:00,
2013-08-18 18:35:00,95.7,58.3,29.91,ENE,77,1.0,1.0,29,0.00,,,0.00,WeatherCatV1.21B27,2013-08-18 23:35:00,
2013-08-18 18:40:00,95.4,59.0,29.91,East,98,2.0,2.0,30,0.00,,,0.00,WeatherCatV1.21B27,2013-08-18 23:40:00,
2013-08-18 18:45:00,94.7,57.4,29.92,SW,232,0.0,3.0,29,0.00,,,0.00,WeatherCatV1.21B27,2013-08-18 23:45:00,
2013-08-18 18:50:00,94.7,59.3,29.92,SSW,207,0.0,1.0,31,0.00,,,0.00,WeatherCatV1.21B27,2013-08-18 23:50:00,
2013-08-18 18:55:00,94.5,58.2,29.91,ESE,105,1.0,4.0,30,0.00,,,0.00,WeatherCatV1.21B27,2013-08-18 23:55:00,
2013-08-18 19:00:00,93.6,58.4,29.91,ESE,120,1.0,3.0,31,0.00,,,0.00,WeatherCatV1.21B27,2013-08-19 00:00:00,
2013-08-18 19:05:00,92.8,58.6,29.91,SSE,150,1.0,3.0,32,0.00,,,0.00,WeatherCatV1.21B27,2013-08-19 00:05:00,
2013-08-18 19:10:00,92.3,58.1,29.91,SE,124,1.0,4.0,32,0.00,,,0.00,WeatherCatV1.21B27,2013-08-19 00:10:00,
2013-08-18 19:15:00,91.7,58.5,29.91,East,98,0.0,2.0,33,0.00,,,0.00,WeatherCatV1.21B27,2013-08-19 00:15:00,
2013-08-18 19:20:00,91.3,58.1,29.91,SSE,161,0.0,2.0,33,0.00,,,0.00,WeatherCatV1.21B27,2013-08-19 00:20:00,
2013-08-18 19:25:00,90.9,58.6,29.91,East,101,1.0,2.0,34,0.00,,,0.00,WeatherCatV1.21B27,2013-08-19 00:25:00,
2013-08-18 19:30:00,90.5,59.1,29.91,SSW,192,0.0,1.0,35,0.00,,,0.00,WeatherCatV1.21B27,2013-08-19 00:30:00,
2013-08-18 19:35:00,90.1,57.9,29.91,SSW,213,0.0,3.0,34,0.00,,,0.00,WeatherCatV1.21B27,2013-08-19 00:35:00,
2013-08-18 19:40:00,89.8,58.5,29.91,East,79,0.0,0.0,35,0.00,,,0.00,WeatherCatV1.21B27,2013-08-19 00:40:00,
2013-08-18 19:45:00,89.4,58.9,29.91,East,79,0.0,0.0,36,0.00,,,0.00,WeatherCatV1.21B27,2013-08-19 00:45:00,
2013-08-18 19:50:00,89.0,58.5,29.91,East,87,0.0,0.0,36,0.00,,,0.00,WeatherCatV1.21B27,2013-08-19 00:50:00,
2013-08-18 19:55:00,88.6,59.0,29.91,East,100,0.0,0.0,37,0.00,,,0.00,WeatherCatV1.21B27,2013-08-19 00:55:00,
2013-08-18 20:00:00,88.2,59.3,29.92,East,100,0.0,0.0,38,0.00,,,0.00,WeatherCatV1.21B27,2013-08-19 01:00:00,
2013-08-18 20:05:00,87.5,58.7,29.92,East,100,0.0,0.0,38,0.00,,,0.00,WeatherCatV1.21B27,2013-08-19 01:05:00,
2013-08-18 20:11:00,87.0,59.0,29.92,East,100,0.0,0.0,39,0.00,,,0.00,WeatherCatV1.21B27,2013-08-19 01:11:00,
2013-08-18 20:16:00,86.3,59.1,29.92,East,100,0.0,0.0,40,0.00,,,0.00,WeatherCatV1.21B27,2013-08-19 01:16:00,
2013-08-18 20:21:00,85.6,59.8,29.92,East,100,0.0,0.0,42,0.00,,,0.00,WeatherCatV1.21B27,2013-08-19 01:21:00,
2013-08-18 20:26:00,85.1,60.7,29.92,East,100,0.0,0.0,44,0.00,,,0.00,WeatherCatV1.21B27,2013-08-19 01:26:00,
2013-08-18 20:31:00,84.7,60.3,29.92,East,100,0.0,0.0,44,0.00,,,0.00,WeatherCatV1.21B27,2013-08-19 01:31:00,
2013-08-18 20:36:00,84.3,60.6,29.92,East,100,0.0,0.0,45,0.00,,,0.00,WeatherCatV1.21B27,2013-08-19 01:36:00,
2013-08-18 20:41:00,83.8,60.2,29.92,East,100,0.0,0.0,45,0.00,,,0.00,WeatherCatV1.21B27,2013-08-19 01:41:00,
2013-08-18 20:46:00,83.4,60.4,29.92,East,100,0.0,0.0,46,0.00,,,0.00,WeatherCatV1.21B27,2013-08-19 01:46:00,
2013-08-18 20:51:00,83.0,60.0,29.92,East,100,0.0,0.0,46,0.00,,,0.00,WeatherCatV1.21B27,2013-08-19 01:51:00,
2013-08-18 20:56:00,82.6,60.9,29.92,East,100,0.0,0.0,48,0.00,,,0.00,WeatherCatV1.21B27,2013-08-19 01:56:00,
2013-08-18 21:01:00,82.2,60.5,29.92,East,100,0.0,0.0,48,0.00,,,0.00,WeatherCatV1.21B27,2013-08-19 02:01:00,
2013-08-18 21:06:00,81.7,60.1,29.92,East,100,0.0,0.0,48,0.00,,,0.00,WeatherCatV1.21B27,2013-08-19 02:06:00,
2013-08-18 21:11:00,81.4,60.4,29.92,East,100,0.0,0.0,49,0.00,,,0.00,WeatherCatV1.21B27,2013-08-19 02:11:00,
2013-08-18 21:16:00,81.1,60.7,29.92,East,100,0.0,0.0,50,0.00,,,0.00,WeatherCatV1.21B27,2013-08-19 02:16:00,
2013-08-18 21:21:00,80.8,60.4,29.92,East,100,0.0,0.0,50,0.00,,,0.00,WeatherCatV1.21B27,2013-08-19 02:21:00,
2013-08-18 21:26:00,80.6,60.2,29.92,East,100,0.0,0.0,50,0.00,,,0.00,WeatherCatV1.21B27,2013-08-19 02:26:00,
2013-08-18 21:31:00,80.3,60.5,29.92,East,100,0.0,0.0,51,0.00,,,0.00,WeatherCatV1.21B27,2013-08-19 02:31:00,
2013-08-18 21:36:00,80.0,60.2,29.93,East,100,0.0,0.0,51,0.00,,,0.00,WeatherCatV1.21B27,2013-08-19 02:36:00,
2013-08-18 21:41:00,79.7,60.0,29.93,East,100,0.0,0.0,51,0.00,,,0.00,WeatherCatV1.21B27,2013-08-19 02:41:00,
2013-08-18 21:46:00,79.5,60.3,29.93,East,100,0.0,0.0,52,0.00,,,0.00,WeatherCatV1.21B27,2013-08-19 02:46:00,
2013-08-18 21:51:00,79.3,60.1,29.93,East,100,0.0,0.0,52,0.00,,,0.00,WeatherCatV1.21B27,2013-08-19 02:51:00,
2013-08-18 21:57:00,79.1,60.5,29.93,East,100,0.0,0.0,53,0.00,,,0.00,WeatherCatV1.21B27,2013-08-19 02:57:00,
2013-08-18 22:02:00,78.8,60.7,29.93,East,100,0.0,0.0,54,0.00,,,0.00,WeatherCatV1.21B27,2013-08-19 03:02:00,
2013-08-18 22:07:00,78.4,60.9,29.93,East,100,0.0,0.0,55,0.00,,,0.00,WeatherCatV1.21B27,2013-08-19 03:07:00,
2013-08-18 22:12:00,78.2,60.7,29.93,East,100,0.0,0.0,55,0.00,,,0.00,WeatherCatV1.21B27,2013-08-19 03:12:00,
2013-08-18 22:17:00,78.2,61.2,29.94,East,100,0.0,0.0,56,0.00,,,0.00,WeatherCatV1.21B27,2013-08-19 03:17:00,
2013-08-18 22:22:00,78.0,61.0,29.93,East,100,0.0,0.0,56,0.00,,,0.00,WeatherCatV1.21B27,2013-08-19 03:22:00,
2013-08-18 22:27:00,77.7,60.7,29.94,East,98,0.0,0.0,56,0.00,,,0.00,WeatherCatV1.21B27,2013-08-19 03:27:00,
2013-08-18 22:32:00,77.2,60.8,29.94,East,100,0.0,0.0,57,0.00,,,0.00,WeatherCatV1.21B27,2013-08-19 03:32:00,
2013-08-18 22:37:00,76.6,61.2,29.94,East,100,0.0,0.0,59,0.00,,,0.00,WeatherCatV1.21B27,2013-08-19 03:37:00,
2013-08-18 22:42:00,76.2,60.8,29.94,East,100,0.0,0.0,59,0.00,,,0.00,WeatherCatV1.21B27,2013-08-19 03:42:00,
2013-08-18 22:47:00,75.8,60.4,29.94,East,100,0.0,0.0,59,0.00,,,0.00,WeatherCatV1.21B27,2013-08-19 03:47:00,
2013-08-18 22:52:00,75.5,60.6,29.94,East,100,0.0,0.0,60,0.00,,,0.00,WeatherCatV1.21B27,2013-08-19 03:52:00,
2013-08-18 22:57:00,75.3,60.9,29.94,East,100,0.0,0.0,61,0.00,,,0.00,WeatherCatV1.21B27,2013-08-19 03:57:00,
2013-08-18 23:01:00,75.1,60.7,29.94,East,100,0.0,0.0,61,0.00,,,0.00,WeatherCatV1.21B27,2013-08-19 04:01:00,
2013-08-18 23:06:00,74.9,60.5,29.94,East,100,0.0,0.0,61,0.00,,,0.00,WeatherCatV1.21B27,2013-08-19 04:06:00,
2013-08-18 23:11:00,75.0,60.2,29.94,East,100,0.0,0.0,60,0.00,,,0.00,WeatherCatV1.21B27,2013-08-19 04:11:00,
2013-08-18 23:16:00,75.0,60.6,29.94,East,100,0.0,0.0,61,0.00,,,0.00,WeatherCatV1.21B27,2013-08-19 04:16:00,
2013-08-18 23:21:00,74.8,60.4,29.94,East,100,0.0,0.0,61,0.00,,,0.00,WeatherCatV1.21B27,2013-08-19 04:21:00,
2013-08-18 23:26:00,74.5,61.1,29.94,East,100,0.0,0.0,63,0.00,,,0.00,WeatherCatV1.21B27,2013-08-19 04:26:00,
2013-08-18 23:31:00,74.4,60.5,29.94,East,98,0.0,0.0,62,0.00,,,0.00,WeatherCatV1.21B27,2013-08-19 04:31:00,
2013-08-18 23:36:00,74.4,60.5,29.94,East,98,0.0,0.0,62,0.00,,,0.00,WeatherCatV1.21B27,2013-08-19 04:36:00,
2013-08-18 23:41:00,74.4,60.5,29.95,East,98,0.0,0.0,62,0.00,,,0.00,WeatherCatV1.21B27,2013-08-19 04:41:00,
2013-08-18 23:46:00,74.1,60.7,29.95,East,100,0.0,0.0,63,0.00,,,0.00,WeatherCatV1.21B27,2013-08-19 04:46:00,
2013-08-18 23:51:00,73.7,61.2,29.94,East,98,0.0,0.0,65,0.00,,,0.00,WeatherCatV1.21B27,2013-08-19 04:51:00,
2013-08-18 23:56:00,73.7,61.2,29.94,East,98,0.0,0.0,65,0.00,,,0.00,WeatherCatV1.21B27,2013-08-19 04:56:00,